Terminal Aerodrome Forecast
Issued by NWS Shreveport, LA

Home | Current Version | Previous Version | Text Only | Print | Product List | Glossary On
Versions: 1 2 3 4 5 6 7 8 9 10 11 12 13 14 15 16
000
FTUS44 KSHV 251150
TAFTXK
TAF
KTXK 251150Z 2512/2612 18007KT P6SM OVC010
     FM251400 18008KT P6SM BKN015 OVC025
     FM251700 17010KT P6SM SCT025 BKN060 BKN100
     FM252100 17012G18KT P6SM VCTS BKN035CB OVC060
     FM260000 17010KT 4SM TSRA BR OVC035CB
     FM260700 17008KT 5SM -SHRA VCTS OVC020CB=

USA.gov is the U.S. government's official web portal to all federal, state and local government web resources and services.